Zurück zum Katalog

SL-14 DEB

AktivPO
NORAD 19175·DEBRIS·🇷🇺 Russia

Gestartet Oct 26, 1978 von Plesetsk Cosmodrome

Loading…

Nächste Überflüge (nächste 24 Stunden)

TLE

AktuellSource: Space-Track

Epoche: Sep 14, 2026, 15:56 UTC

1 19175U 78100S   26257.66391404  .00003073  00000-0  43669-2 0  9997
2 19175  82.3469 144.0294 0277678 278.3880  95.6923 13.41734445772774

Verfolge SL-14 DEB in Echtzeit mit AllMySat

Download on the App Store